Regional Weather Roundup
Issued by NWS

Home | Current Version | Previous Version | Text Only | Print | Product List | Glossary On
Versions: 1 2 3 4 5 6 7 8 9 10 11 12 13 14 15 16 17 18 19 20 21 22 23 24 25 26 27 28 29 30 31 32 33 34 35 36 37 38 39 40 41 42 43 44 45 46 47 48 49 50
944
ASUS42 KFFC 232310
RWRGA
WEATHER ROUNDUP FOR GEORGIA
NATIONAL WEATHER SERVICE PEACHTREE CITY GA
600 PM EST MON JAN 23 2017

NOTE: "FAIR" INDICATES FEW OR NO CLOUDS BELOW 12,000 FEET WITH NO
SIGNIFICANT WEATHER AND/OR OBSTRUCTIONS TO VISIBILITY.

* = USE WITH CAUTION. THE STATIONS MARKED WITH AN ASTERISK MAY NOT
REPORT WEATHER SUCH AS PRECIPITATION, FOG, OR THUNDER AND ARE NOT
QUALITY CONTROLLED BY NWS.

THE REMARK "TC" DENOTES TEMPERATURE READING IN DEGREES CELSIUS.

GAZ001>058-240000-
NORTH GEORGIA

CITY           SKY/WX    TMP DP  RH WIND       PRES   REMARKS
ATLANTA        MOCLDY    55  45  68 NW21G29   29.56R
ATHENS         CLEAR     55  47  74 W14G25    29.46R
CHAMBLEE       CLOUDY    54  43  66 NW13G24   29.55R
PEACHTREE CITY CLEAR     57  44  62 NW13      29.59R
ROME           PTCLDY    53  42  66 NW12      29.63R
WEST ATLANTA   PTCLDY    55  43  63 W15G23    29.57R
GAINESVILLE    CLOUDY    51  47  86 W14G21    29.51R
CARTERSVILLE   PTCLDY    53  43  68 VRB3      29.61R


CITY           SKY/WX    TMP DP  RH WIND       PRES   REMARKS
DALTON*        MOCLDY    52  45  76 NW14G24   29.62R
LAWRENCEVILLE* MOCLDY    54  45  71 NW16G25   29.52R
MARIETTA       MOCLDY    54  43  67 NW20G28   29.56R
KENNESAW*      MOCLDY    54  43  66 NW12G21   29.58R
CANTON*        CLOUDY    52  39  62 NW18G24   29.56R
$$

GAZ059>098-102>109-240000-
CENTRAL GEORGIA

CITY           SKY/WX    TMP DP  RH WIND       PRES   REMARKS
AUGUSTA-BUSH   MOCLDY    64  50  60 NW14G25   29.39R
AUGUSTA-DANIEL CLOUDY    63  48  58 NW9G17    29.40R
COLUMBUS       CLEAR     62  44  51 NW12      29.60R
MACON          PTCLDY    58  45  62 NW20G26   29.54R
ROBINS AFB     CLEAR     58  46  65 NW20G29   29.54R


CITY           SKY/WX    TMP DP  RH WIND       PRES   REMARKS
LAGRANGE*      CLEAR     60  50  68 NW20G28   29.62R
SYLVANIA*      CLEAR    N/A N/A N/A NW14G20   29.42R
MILLEDGEVILLE* MOCLDY    55  50  82 W14       29.51R
$$

GAZ099>101-110>166-240000-
SOUTH GEORGIA

CITY           SKY/WX    TMP DP  RH WIND       PRES   REMARKS
SAVANNAH       PTCLDY    60  50  69 W15       29.41R
VALDOSTA       CLEAR     58  50  75 VRB6      29.58R
ALMA           PTCLDY    59  51  75 W15G25    29.51R
ST SIMONS      CLOUDY    61  53  75 W14G23    29.47R
FT STEWART     PTCLDY    61  50  66 W10G23    29.43R
ALBANY         CLEAR     63  48  58 W8        29.61R
HUNTER AFB     CLEAR     60  56  86 W14       29.39R
MOODY AFB      PTCLDY    59  48  67 W13       29.56R
BRUNSWICK      CLOUDY    61  55  82 W15G21    29.48R


CITY           SKY/WX    TMP DP  RH WIND       PRES   REMARKS
BAINBRIDGE*    CLEAR     63  46  55 NW10      29.63R
MOULTRIE*      CLEAR     61  50  67 W6        29.59R
VIDALIA*       CLOUDY    61  54  77 W13G24    29.48R
WAYCROSS*      CLOUDY    62  55  79 W14G23    29.52R
DOUGLAS*       CLOUDY    59  46  63 NW14G21   29.56R
$$




USA.gov is the U.S. government's official web portal to all federal, state and local government web resources and services.